FW1784 Weather Reports


Display with metric or nautical units.
time (UTC)temp
F
wind
direction
speed
MPH
gust
MPH
rain 1hr
in
rain 24hr
in
rain mn
in
humidity
%
barometer
mb
20260503041603 41 53 0.0 1.0 0.00 0.26 0.00 67 1011.7
20260503040002 40 53 0.0 1.0 0.00 0.27 0.26 68 1011.8
20260503034502 41 55 0.0 0.0 0.00 0.27 0.26 71 1011.6
20260503033102 41 55 0.0 0.0 0.00 0.27 0.26 68 1011.5
20260503031603 42 55 0.0 3.0 0.00 0.27 0.26 64 1011.7
20260503030005 42 57 0.0 2.0 0.00 0.27 0.26 63 1011.7
20260503024628 43 57 0.0 0.0 0.00 0.27 0.26 61 1011.8
20260503023002 43 57 0.0 2.0 0.00 0.27 0.26 59 1011.8
20260503021605 42 32 0.0 3.0 0.00 0.27 0.26 59 1011.9
20260503020003 42 9 0.0 2.0 0.00 0.27 0.26 60 1011.9
20260503014551 42 134 0.0 0.0 0.00 0.27 0.26 62 1012.0
20260503013102 43 134 0.0 2.0 0.00 0.27 0.26 59 1011.9
20260503011633 43 134 0.0 3.0 0.00 0.27 0.26 58 1011.8
20260503010003 43 135 0.0 2.0 0.00 0.27 0.26 57 1011.8
20260503004502 44 135 0.0 2.0 0.00 0.27 0.26 61 1011.6
20260503003103 44 136 0.0 0.0 0.00 0.27 0.26 64 1011.3
20260503001503 45 136 0.0 0.0 0.00 0.27 0.26 62 1011.2
20260503000112 46 136 0.0 0.0 0.00 0.27 0.26 62 1011.2
20260502234618 47 136 0.0 0.0 0.00 0.27 0.26 56 1011.1
20260502233102 48 136 0.0 0.0 0.00 0.27 0.26 54 1011.0
20260502231502 49 136 0.0 3.0 0.00 0.27 0.26 49 1010.7
20260502224604 51 187 1.0 4.0 0.00 0.27 0.26 43 1010.6
20260502223004 52 229 1.0 3.0 0.00 0.27 0.26 41 1010.5
20260502221502 53 55 1.0 7.0 0.00 0.27 0.26 40 1010.4
20260502220104 54 107 3.0 10.0 0.00 0.27 0.26 38 1010.3
20260502214601 56 244 2.0 5.0 0.00 0.27 0.26 41 1010.2
20260502213004 55 313 2.0 5.0 0.00 0.27 0.26 40 1010.0
20260502211602 54 221 1.0 5.0 0.00 0.27 0.26 43 1009.9
20260502204503 56 283 0.0 6.0 0.00 0.27 0.26 39 1009.8
20260502203120 58 200 2.0 8.0 0.00 0.27 0.26 39 1009.8
20260502201630 58 111 2.0 7.0 0.00 0.27 0.26 35 1009.9
20260502200003 56 107 3.0 6.0 0.00 0.27 0.26 37 1010.0
20260502194605 56 132 2.0 8.0 0.00 0.27 0.26 39 1010.2
20260502193003 56 5 1.0 6.0 0.00 0.27 0.26 41 1010.3
20260502191603 56 233 2.0 8.0 0.00 0.27 0.26 39 1010.4
20260502190002 55 45 1.0 6.0 0.00 0.27 0.26 38 1010.5
20260502184504 55 34 3.0 5.0 0.00 0.27 0.26 42 1010.5
20260502183002 54 331 1.0 5.0 0.01 0.27 0.26 40 1010.6
20260502181604 54 71 2.0 5.0 0.01 0.27 0.26 46 1010.7
20260502163102 54 55 1.0 4.0 0.00 0.26 0.25 52 1011.1
20260502161503 54 119 1.0 6.0 0.00 0.26 0.25 46 1011.2
20260502151502 52 119 1.0 5.0 0.00 0.26 0.25 58 1011.6
20260502150104 51 223 1.0 5.0 0.00 0.26 0.25 60 1011.7
20260502130103 46 26 0.0 6.0 0.00 0.26 0.25 95 1011.7
20260502123002 46 204 0.0 0.0 0.00 0.26 0.25 97 1011.5
20260502121603 46 204 0.0 0.0 0.00 0.26 0.25 98 1011.4
20260502114502 45 204 0.0 0.0 0.00 0.26 0.25 97 1011.5
20260502113127 45 204 0.0 0.0 0.00 0.26 0.25 97 1011.3
20260502111503 45 204 0.0 0.0 0.00 0.26 0.25 97 1011.3
20260502110023 45 204 0.0 0.0 0.00 0.26 0.25 97 1011.0
20260502104611 44 204 0.0 0.0 0.00 0.26 0.25 97 1011.1
20260502103003 44 204 0.0 0.0 0.00 0.26 0.25 97 1011.0
20260502101612 44 204 0.0 0.0 0.00 0.26 0.25 97 1010.7
20260502091503 44 204 0.0 0.0 0.00 0.26 0.25 96 1010.6
20260502090123 44 204 0.0 0.0 0.00 0.26 0.25 97 1010.5
20260502071503 45 204 0.0 0.0 0.08 0.25 0.24 96 1011.1
20260502070122 45 205 0.0 0.0 0.12 0.24 0.23 96 1011.2
20260502064603 45 205 0.0 2.0 0.13 0.22 0.21 96 1011.5
20260502063003 45 165 0.0 1.0 0.11 0.19 0.18 96 1011.5
20260502061602 45 165 0.0 2.0 0.10 0.17 0.16 95 1011.3
20260502060011 45 165 0.0 0.0 0.08 0.12 0.11 95 1011.6
20260502054503 45 165 0.0 3.0 0.05 0.09 0.08 95 1011.3
20260502053102 46 150 0.0 1.0 0.05 0.08 0.07 95 1011.4
20260502051502 46 150 0.0 0.0 0.06 0.07 0.06 95 1011.5
20260502044604 46 229 0.0 0.0 0.03 0.04 0.03 94 1011.4
20260502043003 46 229 0.0 0.0 0.02 0.03 0.02 93 1011.4